Location: Krakow
(50.0830°N, 19.9170°E)
Time: 19:12:01
(UTC+01:00)

Transit 2A - Pass Details

Date: 08 February 2023
Orbit: 591 x 964 km, 66.7° (Epoch: 21 March)

Event Time Altitude Azimuth Distance (km) Brightness Sun altitude
Rises 19:44:01 0° 301° (WNW) 3,283 10.3 -28.8°
Reaches altitude 10° 19:47:30 10° 325° (NW) 2,436 9.1 -29.4°
Maximum altitude 19:50:42 15° 360° (N) 2,158 8.4 -29.9°
Enters shadow 19:51:47 15° 12° (NNE) 2,218 8.4 -30.0°
Drops below altitude 10° 19:54:04 10° 34° (NE) 2,572 - -30.4°
Sets 19:57:54 0° 57° (ENE) 3,576 - -31.0°
